SCP
0 0 0 0 0 0 0 0 0 0 0 0 0 0 0 0 0 0 0 0 0 0 0 0 0 0 0 0 0 0 0 0 0 0 0 0 0 0 0 0 0 0 0 0 0
0 0 0 0 0 0 0 0 0 0 0 0 0 0 0 0 0 0 -0 0 0 0 0 0 0 0 0 0 0 0 0 0 0 0 0 0 0 0 0 0 0 0 0 0 0
0 0 0 0 0 0 0 0 0 0 0 0 0 0 0 0 0 0 0 0 0 0 0 0 0 0 0 0 0 0 0 0 0 0 0 0 0 0 0 0 0 0 0 0 0
0 0 0 0 0 0 0 0 0 0 0 0 0 0 0 0 0 0 0 0 0 0 0 0 0 0 0 0 0 0 0 0 0 0 0 0 0 0 0 0 0 0 0 0 0
0 0 0 0 0 0 0 0 0 0 0 0 0 0 0 0 0 0 0 0 0 0 0 0 0 0 0 0 0 0 0 0 0 0 0 0 0 0 0 0 0 0 0 0 0
0 0 0 0 0 0 0 0 0 0 0 0 0 0 0 0 0 0 0 0 0 0 0 0 0 0 0 0 0 0 0 0 0 0 0 0 0 0 0 0 0 0 0 0 0
0 0 0 0 0 0 0 0 0 0 0 0 0 0 0 0 0 0 0 0 0 0 0 0 0 0 0 0 0 0 0 0 0 0 0 0 0 0 0 0 0 0 0 0 0
0 0 0 0 0 0 0 0 0 0 0 0 0 0 0 0 0 0 0 0 0 0 0 0 0 0 0 0 0 0 0 0 0 0 0 0 0 0 0 0 0 0 0 0 0
0 0 0 0 0 0 0 0 0 0 0 0 0 0 0 0 0 0 0 0 0 0 0 0 0 0 0 0 0 0 0 0 0 0 0 0 0 0 0 0 0 0 0 0 0
0 0 0 0 0 0 0 0 0 0 0 0 0 0 0 0 0 0 0 0 0 0 0 0 0 0 0 0 0 0 0 0 0 0 0 0 0 0 0 0 0 0 0 0 0
0 0 0 0 0 0 0 0 0 0 0 0 0 0 0 0 0 0 0 0 0 0 0 0 0 0 0 0 0 0 0 0 0 0 0 0 0 0 0 0 0 0 0 0 0
0 0 0 0 0 0 0 0 0 0 0 0 0 0 0 0 0 0 0 0 0 0 0 0 0 0 0 0 0 0 0 0 0 0 0 0 0 0 0 0 0 0 0 0 0
0 0 0 0 0 0 0 0 0 0 0 0 0 0 0 0 0 0 0 0 0 0 0 0 0 0 0 0 0 0 0 0 0 -0 0 0 0 0 0 0 0 0 0 0 0
0 0 0 0 0 0 0 0 -0 0 0 0 0 0 0 0 0 0 0 0 0 0 0 0 0 0 0 0 0 0 0 0 0 0 0 0 0 0 0 0 0 0 0 0 0
0 0 0 0 0 0 0 0 0 0 0 0 0 0 0 0 0 0 0 0 0 0 0 0 0 0 0 0 0 0 0 0 0 0 0 0 0 0 0 0 0 0 0 0 0
0 0 0 0 0 0 0 0 0 0 0 0 0 0 0 0 0 0 0 0 0 0 0 0 0 0 0 0 0 0 0 0 0 0 0 0 0 0 0 0 0 0 0 0 0
0 0 0 0 0 0 0 0 0 0 0 0 0 0 0 0 0 0 0 0 0 0 0 0 0 0 0 0 0 0 0 0 0 0 0 0 0 0 0 0 0 -0 -0 0 -0
0 0 0 0 0 0 0 0 0 0 0 0 0 0 0 0 0 0 0 0 0 0 0 0 0 0 0 0 0 0 0 0 0 0 0 0 0 0 0 0 0 0 -0 -0 -0
0 0 0 0 0 0 0 0 0 0 0 0 0 0 0 0 0 0 0 0 0 0 0 0 0 0 0 0 0 0 0 0 0 0 0 0 0 0 0 0 0 0 -0 -0 -0
0 0 0 0 0 0 0 0 0 0 0 0 0 0 0 0 0 0 0 0 0 0 0 0 0 0 0 0 0 0 0 0 0 0 0 0 0 0 0 0 0 0 0 -0 0
0 0 0 0 0 0 0 0 0 0 0 0 0 0 0 0 0 0 0 0 0 0 0 0 0 0 0 0 0 0 0 0 0 0 0 0 0 0 0 0 0 0 -0 -0 -0
0 0 0 0 0 0 0 0 0 0 0 0 0 0 0 0 0 0 0 0 0 0 0 0 0 0 0 0 0 0 0 0 0 0 0 0 0 0 0 0 0 0 -0 -0 0
0 0 0 0 0 0 0 0 0 0 0 0 0 0 0 0 0 0 0 0 0 0 0 0 0 0 0 0 0 0 0 0 0 0 0 0 0 0 0 0 0 0 0 0 0
0 0 0 0 0 0 0 -0 0 0 0 0 0 0 0 0 0 0 0 0 0 0 0 0 0 0 0 0 0 0 0 0 0 0 0 0 0 0 0 0 0 0 0 0 0
0 0 0 0 0 0 0 0 0 0 0 0 0 0 0 0 0 0 0 0 0 0 0 0 0 0 0 0 0 0 0 0 0 0 0 0 0 0 0 0 0 0 0 0 0
0 0 0 0 0 0 0 0 0 0 0 0 -0 0 0 0 0 0 0 0 0 0 0 0 0 0 0 0 0 0 0 0 0 0 0 0 0 0 0 0 0 0 0 0 0
0 0 0 0 0 0 0 0 0 0 0 0 -0 0 0 0 0 0 0 0 0 0 0 0 0 0 0 0 0 0 0 0 0 0 0 0 0 0 0 0 0 0 0 0 0
Wind_Speed_500mb
19 19 19 22 25 26 28 28 26 22 17 13 7 5 7 6 8 15 22 26 30 29 12 5 7 12 14 11 8 6 6 8 6 7 2 1 8 9 14 31 24 22 28 26 47
21 21 22 23 23 25 28 26 25 19 14 11 5 3 5 1 8 15 32 31 24 13 7 8 12 14 8 6 5 4 5 2 1 5 11 18 22 27 21 34 37 38 23 38 44
20 23 25 25 26 27 29 26 24 19 12 7 2 4 5 3 4 16 30 22 16 11 7 7 15 12 8 5 3 2 4 4 8 10 13 19 28 31 30 28 15 22 35 42 39
19 21 23 25 27 29 31 29 24 19 12 6 2 5 3 2 3 19 24 15 13 9 8 10 11 7 6 4 2 6 5 7 4 6 15 25 24 21 25 20 12 17 25 33 40
19 21 24 26 28 29 30 29 25 22 12 6 5 7 4 3 2 19 18 10 10 9 7 12 8 7 7 6 4 5 1 10 17 28 25 16 23 24 28 12 12 18 24 31 38
19 21 24 26 28 31 32 28 26 22 12 5 6 7 7 5 1 17 10 6 8 11 20 13 6 11 11 5 2 2 18 26 19 14 10 14 24 15 6 8 13 20 25 32 37
19 21 24 27 30 32 33 30 27 17 9 8 6 6 6 9 6 20 2 5 6 8 12 14 14 2 7 6 3 6 10 15 5 4 7 14 25 17 5 7 18 27 33 36 38
22 25 26 28 29 31 31 30 25 14 7 9 7 7 5 8 2 16 8 5 4 6 6 6 4 5 3 3 4 5 4 16 7 9 4 5 26 4 7 13 19 26 31 36 39
24 28 30 31 31 31 29 28 21 11 7 9 9 7 5 12 3 8 6 5 6 4 4 1 2 2 3 4 3 6 18 28 20 4 9 14 30 2 9 9 17 21 28 32 37
25 28 30 33 31 29 26 27 14 9 8 11 12 5 12 10 11 5 5 7 6 8 3 2 1 5 2 10 8 14 19 21 32 13 20 36 46 33 21 14 11 19 26 30 32
25 27 29 33 30 26 25 14 7 6 9 10 7 4 16 9 15 3 2 9 5 4 6 2 7 8 1 3 3 12 20 39 34 22 20 33 37 36 23 19 12 16 27 33 36
23 24 27 32 31 22 23 13 11 13 11 16 14 9 11 11 9 3 1 9 7 8 4 6 11 7 2 3 10 14 31 27 18 17 27 34 45 31 17 18 6 20 30 31 38
27 25 26 33 24 26 20 25 16 11 7 5 11 8 7 8 8 3 4 8 5 7 7 10 4 7 3 7 11 15 21 19 35 44 20 21 20 5 13 16 12 21 26 27 32
28 26 24 29 15 30 17 24 15 17 5 5 4 3 6 6 4 4 3 5 4 6 4 11 5 4 10 5 4 12 6 25 33 14 9 3 11 9 12 14 13 26 32 32 33
32 28 25 24 23 20 20 17 15 9 9 5 5 6 5 4 4 5 1 3 6 5 5 4 5 4 5 3 2 14 29 26 7 8 11 10 8 4 7 14 8 28 32 32 32
29 27 31 23 22 17 18 17 10 1 12 3 4 4 3 2 1 3 3 3 4 3 7 6 1 3 3 4 5 21 12 7 2 5 7 8 5 10 6 3 14 26 34 33 35
25 27 33 27 16 18 10 8 4 7 2 1 2 1 2 3 3 1 1 3 4 4 4 4 4 3 4 6 5 17 15 7 6 5 6 8 11 18 9 8 9 23 32 29 32
26 25 29 31 22 15 4 6 10 1 4 0 1 1 6 1 4 1 3 6 5 3 2 3 5 3 4 4 3 12 6 4 14 11 13 4 11 4 2 7 14 19 22 22 30
25 21 30 30 22 15 9 4 7 3 2 2 3 2 6 4 4 5 8 5 5 10 5 3 5 6 5 3 5 8 3 4 7 4 9 8 8 8 4 11 23 23 23 26 30
20 20 17 16 12 15 3 11 6 2 2 5 5 2 6 6 5 4 10 7 10 3 4 5 7 1 6 4 9 4 13 3 5 11 13 9 10 11 3 22 31 22 25 27 28
8 4 2 9 12 9 5 7 2 1 6 7 5 4 11 5 6 5 6 5 5 9 7 8 3 5 3 8 6 7 6 5 3 5 7 13 3 4 5 18 25 23 23 22 24
5 2 9 13 3 1 3 2 1 2 7 8 6 1 6 4 4 7 6 2 13 16 8 8 2 7 0 2 3 2 4 6 5 4 8 7 13 8 4 10 20 24 18 16 17
4 5 11 12 2 3 1 4 8 6 10 5 8 8 1 5 6 5 3 4 14 11 6 11 4 7 5 4 4 8 9 7 8 3 12 6 8 6 5 9 15 18 15 13 15
4 3 4 9 3 2 4 5 4 8 10 6 4 5 2 6 6 5 4 5 10 4 8 12 4 10 7 5 3 6 11 18 9 6 4 16 20 8 11 13 14 16 14 15 15
7 3 6 1 4 6 1 3 4 5 8 7 6 15 11 7 4 8 6 6 6 13 6 3 7 3 10 4 5 8 10 22 22 7 12 4 10 27 14 9 9 13 12 10 11
5 4 4 3 3 9 9 6 6 3 8 7 11 6 14 9 3 3 9 9 7 14 9 4 3 2 7 2 6 12 17 22 27 11 24 22 25 10 1 3 6 3 3 5 8
4 6 2 9 7 4 5 6 4 2 9 5 12 6 11 12 17 13 8 2 6 12 17 9 5 2 7 2 9 12 12 24 10 13 11 9 3 6 7 6 6 4 5 6 9
Wind_Direction_500mb
1 1 2 360 356 359 2 2 3 359 5 10 33 101 133 132 9 1 7 351 336 338 357 51 61 112 112 87 91 124 206 242 242 214 349 250 312 295 289 286 285 276 293 306 308
356 356 357 355 354 356 359 2 0 358 1 5 23 116 163 224 352 360 357 347 344 8 41 117 128 137 79 83 48 225 234 254 132 229 271 283 287 297 289 282 280 278 273 312 316
355 356 353 352 349 353 355 358 357 353 351 357 47 146 193 276 14 359 355 0 15 35 60 89 126 113 83 85 51 152 269 138 233 248 285 289 283 286 278 282 296 299 306 310 319
357 355 351 350 348 350 351 350 349 344 338 335 161 163 190 288 320 358 3 17 24 38 109 108 134 98 113 154 122 247 238 247 296 266 299 291 293 266 267 278 278 292 302 312 314
357 355 353 351 348 347 346 343 338 334 321 311 182 182 193 126 81 360 2 30 43 56 119 88 99 128 136 161 200 241 292 272 268 289 290 267 255 269 268 274 294 306 311 311 308
356 353 351 349 349 345 341 338 333 326 301 261 190 183 205 237 251 347 349 65 83 83 77 83 103 123 118 149 233 222 293 290 291 282 281 278 280 279 220 295 309 318 318 315 311
351 351 348 344 343 343 338 335 330 320 281 228 202 190 220 202 311 340 110 137 107 105 99 83 69 153 136 136 155 296 296 302 266 201 262 305 264 233 228 308 312 316 316 313 311
344 342 342 339 338 341 336 334 327 316 258 224 214 195 214 193 307 345 160 156 119 153 121 84 75 66 55 350 104 279 249 337 68 278 276 303 289 189 230 317 312 316 316 316 314
339 338 338 338 336 334 332 330 318 304 251 225 213 206 209 184 197 18 171 230 197 196 180 124 278 71 282 348 165 58 321 322 329 205 284 239 292 77 241 276 300 316 316 319 317
338 339 338 337 336 339 334 329 311 284 242 228 227 188 192 205 192 30 204 196 223 173 191 250 203 241 250 8 342 318 320 311 307 327 269 271 273 276 248 247 280 317 324 322 321
335 344 344 343 337 342 343 336 344 275 225 227 218 218 154 192 197 308 265 185 188 191 233 34 246 256 256 121 285 286 292 301 304 333 282 268 278 287 254 230 256 321 332 330 325
322 335 346 348 343 347 352 2 333 288 295 240 216 197 175 182 193 307 157 183 203 232 189 217 242 121 151 236 275 295 304 308 313 273 294 280 287 284 228 230 251 328 337 329 326
310 319 338 347 345 350 357 0 349 349 264 241 208 199 201 200 201 168 149 168 219 218 215 253 83 131 297 304 305 300 286 310 305 322 276 294 273 232 200 204 224 324 332 330 330
300 305 322 339 344 344 354 352 357 344 294 170 204 203 187 181 216 180 114 172 176 268 213 259 114 202 266 275 356 309 104 317 319 320 316 3 296 238 186 210 223 338 337 335 335
291 298 309 325 326 336 333 340 348 356 307 105 149 174 188 200 146 217 70 150 226 192 172 75 192 218 268 144 216 261 321 308 292 260 312 179 258 177 190 220 307 344 341 337 336
292 290 293 306 317 320 327 332 341 327 248 124 136 176 219 137 174 282 152 94 137 197 215 277 231 245 294 284 232 307 311 281 203 251 248 168 262 266 209 218 317 342 342 337 335
297 280 274 285 281 296 319 351 12 231 77 3 290 244 262 210 206 280 124 181 244 262 218 192 177 135 322 274 159 17 336 327 271 253 308 167 255 280 178 211 302 330 330 336 334
311 288 273 268 263 255 150 63 232 91 241 89 143 188 255 65 213 199 205 222 193 202 130 297 246 197 4 32 29 57 10 34 299 316 313 284 240 314 117 250 275 319 325 338 340
301 281 256 258 260 234 148 158 242 223 337 313 227 184 241 208 255 235 221 231 157 186 226 196 237 118 57 129 282 116 60 87 265 201 274 247 260 144 202 312 324 341 343 352 344
292 232 237 254 244 177 105 233 225 96 51 58 264 235 280 181 204 223 193 148 160 151 159 124 274 157 134 155 57 42 139 204 159 309 296 280 281 309 341 331 319 341 347 350 342
245 229 213 201 177 137 230 228 323 67 214 200 248 231 256 272 209 240 218 141 169 137 106 143 253 130 166 201 160 157 161 134 244 243 294 310 349 69 31 319 308 328 340 350 338
288 65 187 163 102 162 236 284 46 346 271 267 250 177 257 279 257 242 242 246 157 156 155 165 247 258 168 360 325 24 171 165 208 164 237 281 281 144 94 315 301 323 334 346 329
215 116 196 178 245 230 167 232 223 182 224 250 214 216 170 223 237 226 235 73 156 173 164 164 205 287 193 189 177 225 179 155 109 113 227 270 314 187 211 326 312 321 342 329 308
194 126 100 196 208 259 229 221 233 208 247 181 204 157 243 227 214 294 244 144 177 172 138 149 259 252 256 311 52 204 188 186 184 213 181 238 294 291 349 352 339 338 345 310 330
204 221 162 158 235 214 194 305 212 248 225 206 233 219 205 236 224 229 206 155 174 171 116 183 256 234 272 280 250 263 208 192 202 191 235 12 261 305 334 314 312 323 323 323 352
225 170 115 159 147 174 197 222 227 214 181 221 232 164 216 234 237 345 176 206 194 177 190 141 255 278 268 132 223 269 229 214 228 235 263 286 284 212 190 271 268 270 335 354 42
217 252 272 174 161 176 222 243 280 150 210 222 226 176 198 249 291 268 206 319 201 173 190 172 201 273 268 287 278 275 218 188 180 199 189 206 192 175 178 163 223 173 132 102 89
Wind_Speed_850mb
19 19 19 22 25 26 28 28 26 22 17 13 7 5 7 6 8 15 22 26 30 29 12 5 7 12 14 11 8 6 6 8 6 7 2 1 8 9 14 31 24 22 28 26 47
21 21 22 23 23 25 28 26 25 19 14 11 5 3 5 1 8 15 32 31 24 13 7 8 12 14 8 6 5 4 5 2 1 5 11 18 22 27 21 34 37 38 23 38 44
20 23 25 25 26 27 29 26 24 19 12 7 2 4 5 3 4 16 30 22 16 11 7 7 15 12 8 5 3 2 4 4 8 10 13 19 28 31 30 28 15 22 35 42 39
19 21 23 25 27 29 31 29 24 19 12 6 2 5 3 2 3 19 24 15 13 9 8 10 11 7 6 4 2 6 5 7 4 6 15 25 24 21 25 20 12 17 25 33 40
19 21 24 26 28 29 30 29 25 22 12 6 5 7 4 3 2 19 18 10 10 9 7 12 8 7 7 6 4 5 1 10 17 28 25 16 23 24 28 12 12 18 24 31 38
19 21 24 26 28 31 32 28 26 22 12 5 6 7 7 5 1 17 10 6 8 11 20 13 6 11 11 5 2 2 18 26 19 14 10 14 24 15 6 8 13 20 25 32 37
19 21 24 27 30 32 33 30 27 17 9 8 6 6 6 9 6 20 2 5 6 8 12 14 14 2 7 6 3 6 10 15 5 4 7 14 25 17 5 7 18 27 33 36 38
22 25 26 28 29 31 31 30 25 14 7 9 7 7 5 8 2 16 8 5 4 6 6 6 4 5 3 3 4 5 4 16 7 9 4 5 26 4 7 13 19 26 31 36 39
24 28 30 31 31 31 29 28 21 11 7 9 9 7 5 12 3 8 6 5 6 4 4 1 2 2 3 4 3 6 18 28 20 4 9 14 30 2 9 9 17 21 28 32 37
25 28 30 33 31 29 26 27 14 9 8 11 12 5 12 10 11 5 5 7 6 8 3 2 1 5 2 10 8 14 19 21 32 13 20 36 46 33 21 14 11 19 26 30 32
25 27 29 33 30 26 25 14 7 6 9 10 7 4 16 9 15 3 2 9 5 4 6 2 7 8 1 3 3 12 20 39 34 22 20 33 37 36 23 19 12 16 27 33 36
23 24 27 32 31 22 23 13 11 13 11 16 14 9 11 11 9 3 1 9 7 8 4 6 11 7 2 3 10 14 31 27 18 17 27 34 45 31 17 18 6 20 30 31 38
27 25 26 33 24 26 20 25 16 11 7 5 11 8 7 8 8 3 4 8 5 7 7 10 4 7 3 7 11 15 21 19 35 44 20 21 20 5 13 16 12 21 26 27 32
28 26 24 29 15 30 17 24 15 17 5 5 4 3 6 6 4 4 3 5 4 6 4 11 5 4 10 5 4 12 6 25 33 14 9 3 11 9 12 14 13 26 32 32 33
32 28 25 24 23 20 20 17 15 9 9 5 5 6 5 4 4 5 1 3 6 5 5 4 5 4 5 3 2 14 29 26 7 8 11 10 8 4 7 14 8 28 32 32 32
29 27 31 23 22 17 18 17 10 1 12 3 4 4 3 2 1 3 3 3 4 3 7 6 1 3 3 4 5 21 12 7 2 5 7 8 5 10 6 3 14 26 34 33 35
25 27 33 27 16 18 10 8 4 7 2 1 2 1 2 3 3 1 1 3 4 4 4 4 4 3 4 6 5 17 15 7 6 5 6 8 11 18 9 8 9 23 32 29 32
26 25 29 31 22 15 4 6 10 1 4 0 1 1 6 1 4 1 3 6 5 3 2 3 5 3 4 4 3 12 6 4 14 11 13 4 11 4 2 7 14 19 22 22 30
25 21 30 30 22 15 9 4 7 3 2 2 3 2 6 4 4 5 8 5 5 10 5 3 5 6 5 3 5 8 3 4 7 4 9 8 8 8 4 11 23 23 23 26 30
20 20 17 16 12 15 3 11 6 2 2 5 5 2 6 6 5 4 10 7 10 3 4 5 7 1 6 4 9 4 13 3 5 11 13 9 10 11 3 22 31 22 25 27 28
8 4 2 9 12 9 5 7 2 1 6 7 5 4 11 5 6 5 6 5 5 9 7 8 3 5 3 8 6 7 6 5 3 5 7 13 3 4 5 18 25 23 23 22 24
5 2 9 13 3 1 3 2 1 2 7 8 6 1 6 4 4 7 6 2 13 16 8 8 2 7 0 2 3 2 4 6 5 4 8 7 13 8 4 10 20 24 18 16 17
4 5 11 12 2 3 1 4 8 6 10 5 8 8 1 5 6 5 3 4 14 11 6 11 4 7 5 4 4 8 9 7 8 3 12 6 8 6 5 9 15 18 15 13 15
4 3 4 9 3 2 4 5 4 8 10 6 4 5 2 6 6 5 4 5 10 4 8 12 4 10 7 5 3 6 11 18 9 6 4 16 20 8 11 13 14 16 14 15 15
7 3 6 1 4 6 1 3 4 5 8 7 6 15 11 7 4 8 6 6 6 13 6 3 7 3 10 4 5 8 10 22 22 7 12 4 10 27 14 9 9 13 12 10 11
5 4 4 3 3 9 9 6 6 3 8 7 11 6 14 9 3 3 9 9 7 14 9 4 3 2 7 2 6 12 17 22 27 11 24 22 25 10 1 3 6 3 3 5 8
4 6 2 9 7 4 5 6 4 2 9 5 12 6 11 12 17 13 8 2 6 12 17 9 5 2 7 2 9 12 12 24 10 13 11 9 3 6 7 6 6 4 5 6 9
Wind_Direction_850mb
1 1 2 360 356 359 2 2 3 359 5 10 33 101 133 132 9 1 7 351 336 338 357 51 61 112 112 87 91 124 206 242 242 214 349 250 312 295 289 286 285 276 293 306 308
356 356 357 355 354 356 359 2 0 358 1 5 23 116 163 224 352 360 357 347 344 8 41 117 128 137 79 83 48 225 234 254 132 229 271 283 287 297 289 282 280 278 273 312 316
355 356 353 352 349 353 355 358 357 353 351 357 47 146 193 276 14 359 355 0 15 35 60 89 126 113 83 85 51 152 269 138 233 248 285 289 283 286 278 282 296 299 306 310 319
357 355 351 350 348 350 351 350 349 344 338 335 161 163 190 288 320 358 3 17 24 38 109 108 134 98 113 154 122 247 238 247 296 266 299 291 293 266 267 278 278 292 302 312 314
357 355 353 351 348 347 346 343 338 334 321 311 182 182 193 126 81 360 2 30 43 56 119 88 99 128 136 161 200 241 292 272 268 289 290 267 255 269 268 274 294 306 311 311 308
356 353 351 349 349 345 341 338 333 326 301 261 190 183 205 237 251 347 349 65 83 83 77 83 103 123 118 149 233 222 293 290 291 282 281 278 280 279 220 295 309 318 318 315 311
351 351 348 344 343 343 338 335 330 320 281 228 202 190 220 202 311 340 110 137 107 105 99 83 69 153 136 136 155 296 296 302 266 201 262 305 264 233 228 308 312 316 316 313 311
344 342 342 339 338 341 336 334 327 316 258 224 214 195 214 193 307 345 160 156 119 153 121 84 75 66 55 350 104 279 249 337 68 278 276 303 289 189 230 317 312 316 316 316 314
339 338 338 338 336 334 332 330 318 304 251 225 213 206 209 184 197 18 171 230 197 196 180 124 278 71 282 348 165 58 321 322 329 205 284 239 292 77 241 276 300 316 316 319 317
338 339 338 337 336 339 334 329 311 284 242 228 227 188 192 205 192 30 204 196 223 173 191 250 203 241 250 8 342 318 320 311 307 327 269 271 273 276 248 247 280 317 324 322 321
335 344 344 343 337 342 343 336 344 275 225 227 218 218 154 192 197 308 265 185 188 191 233 34 246 256 256 121 285 286 292 301 304 333 282 268 278 287 254 230 256 321 332 330 325
322 335 346 348 343 347 352 2 333 288 295 240 216 197 175 182 193 307 157 183 203 232 189 217 242 121 151 236 275 295 304 308 313 273 294 280 287 284 228 230 251 328 337 329 326
310 319 338 347 345 350 357 0 349 349 264 241 208 199 201 200 201 168 149 168 219 218 215 253 83 131 297 304 305 300 286 310 305 322 276 294 273 232 200 204 224 324 332 330 330
300 305 322 339 344 344 354 352 357 344 294 170 204 203 187 181 216 180 114 172 176 268 213 259 114 202 266 275 356 309 104 317 319 320 316 3 296 238 186 210 223 338 337 335 335
291 298 309 325 326 336 333 340 348 356 307 105 149 174 188 200 146 217 70 150 226 192 172 75 192 218 268 144 216 261 321 308 292 260 312 179 258 177 190 220 307 344 341 337 336
292 290 293 306 317 320 327 332 341 327 248 124 136 176 219 137 174 282 152 94 137 197 215 277 231 245 294 284 232 307 311 281 203 251 248 168 262 266 209 218 317 342 342 337 335
297 280 274 285 281 296 319 351 12 231 77 3 290 244 262 210 206 280 124 181 244 262 218 192 177 135 322 274 159 17 336 327 271 253 308 167 255 280 178 211 302 330 330 336 334
311 288 273 268 263 255 150 63 232 91 241 89 143 188 255 65 213 199 205 222 193 202 130 297 246 197 4 32 29 57 10 34 299 316 313 284 240 314 117 250 275 319 325 338 340
301 281 256 258 260 234 148 158 242 223 337 313 227 184 241 208 255 235 221 231 157 186 226 196 237 118 57 129 282 116 60 87 265 201 274 247 260 144 202 312 324 341 343 352 344
292 232 237 254 244 177 105 233 225 96 51 58 264 235 280 181 204 223 193 148 160 151 159 124 274 157 134 155 57 42 139 204 159 309 296 280 281 309 341 331 319 341 347 350 342
245 229 213 201 177 137 230 228 323 67 214 200 248 231 256 272 209 240 218 141 169 137 106 143 253 130 166 201 160 157 161 134 244 243 294 310 349 69 31 319 308 328 340 350 338
288 65 187 163 102 162 236 284 46 346 271 267 250 177 257 279 257 242 242 246 157 156 155 165 247 258 168 360 325 24 171 165 208 164 237 281 281 144 94 315 301 323 334 346 329
215 116 196 178 245 230 167 232 223 182 224 250 214 216 170 223 237 226 235 73 156 173 164 164 205 287 193 189 177 225 179 155 109 113 227 270 314 187 211 326 312 321 342 329 308
194 126 100 196 208 259 229 221 233 208 247 181 204 157 243 227 214 294 244 144 177 172 138 149 259 252 256 311 52 204 188 186 184 213 181 238 294 291 349 352 339 338 345 310 330
204 221 162 158 235 214 194 305 212 248 225 206 233 219 205 236 224 229 206 155 174 171 116 183 256 234 272 280 250 263 208 192 202 191 235 12 261 305 334 314 312 323 323 323 352
225 170 115 159 147 174 197 222 227 214 181 221 232 164 216 234 237 345 176 206 194 177 190 141 255 278 268 132 223 269 229 214 228 235 263 286 284 212 190 271 268 270 335 354 42
217 252 272 174 161 176 222 243 280 150 210 222 226 176 198 249 291 268 206 319 201 173 190 172 201 273 268 287 278 275 218 188 180 199 189 206 192 175 178 163 223 173 132 102 89